Weather in Kareli

Russia / Tambov Oblast     53°29′59″N   41°50′10″E
temp.,
°C
wind,
m/s
gust,
m/s
humid.,
%
clouds,
%
prec.,
mm/h
press.,
hPa
HPBL,
m
28 february, sun
sun2800:00−12nnw369798 0.1 1013151
03:00−13nw349688 0.1 101467
06:00−13nw239690 0.0 101466
09:00−11nw249586 0.1 1015148
12:00−7nw348891 0.1 1015489
15:00−6nw348995 0.1 1015588
18:00−7nnw2493100 0.1 1016123
21:00−8n2396100 0.1 101970
1 march, mon
mon100:00−11ne129699 0.1 102021
03:00−12nnw129698 0.1 102221
06:00−12nnw1297100 0.0 102321
09:00−10nnw129597 0.1 102579
12:00−7wnw228988 0.0 1025272
15:00−6wsw359287 0.0 1025267
18:00−8sw479574 0.0 1023140
21:00−3wsw5119484 0.1 1021599
2 march, tue
tue200:00−3wsw61294100 0.1 1018464
03:00−1wsw71493100 0.4 1015570
06:00+1w71392100 0.1 1012772
09:00+1w71397100 0.1 1010633
12:00+1wnw61110099 0.1 1009586
15:00+1wnw51099100 0.6 1008527
18:00−1wnw499497 0.1 1007244
21:00−1nw389498 0.1 1008235
3 march, wed
wed300:00−3nw3894100 0.1 1008209
03:00−3nw499296 0.1 1010291
06:00−5nw489470 0.0 1010144
09:00−3nw5109467 0.1 1011523
12:00−1nnw689095 0.1 1013864
15:00−2nw7108396 0.3 1014931
18:00−4nw51188100 0.1 1015489
21:00−8w479062 0.1 1017113
4 march, thu
thu400:00−7wsw499357 0.0 1015161
03:00−7wsw489567 0.0 1013181
06:00−4sw61193100 0.0 1011423
09:00−4sw71492100 0.1 1009498
12:000wsw9158699 0.0 1005787
15:00+1wsw9158497 0.0 10041057
18:000w71494100 0.1 1003909
21:00−1wsw61392100 0.1 1004546